User: anonymous   Login
Location: Brachbach
(49.1847°N, 9.7240°E)
Time: 02:26:22
(UTC+00:00)
Language:

EXPRESS MD2 - Orbit

View from above orbital plane
View from above orbital plane
View from above satellite
View from above satellite

Ground track
Ground track

The orbit data is extracted from the following two-line orbital elements,

1 38745U 12044B   24194.85169358  .00033968  45440-5  73653-3 0  9991
2 38745  49.8524  72.9083 1869649 158.8413 210.1435 11.76317370475405
Epoch (UTC): 12 July 2024 20:26:26
Eccentricity: 0.1869649
inclination: 49.8524°
perigee height: 262 km
apogee height: 3315 km
right ascension of ascending node: 72.9083°
argument of perigee: 158.8413°
revolutions per day: 11.76317370
mean anomaly at epoch: 210.1435°
orbit number at epoch: 47540

The dashed part of the orbit path shows where the satellite is in the earth's shadow,  

DLR